Latest Coastal Weather Observations for Low Head

IDV60701

Issued at 5:15 pm EST Wednesday 3 September 2014 (issued every 10 minutes, with the page automatically refreshed every 10 minutes)

About coastal observations | Map of coastal stations | Coastal observations for VIC | Marine services | Other Formats
Station Details ID: 091293 Name: LOW HEAD Lat: -41.05 Lon: 146.79 Height: 3.0 m
Data from the previous 72 hours. | See also: Recent months at Low Head
Date/Time
EST
Temp

°C
Wind Pressure Rain
since 9am
mm
Weather Cloud Vis
km
Sea
Height
m
Swell
Dir
 
Speed
knots
Gust
knots
hPa Trend Height
m
Period
s
Dir
03/05:00pm 12.3 W 10 12 1018.9 - 0.0 - - - - - - -
03/04:30pm 12.9 WNW 9 11 1018.7 - 0.0 - - - - - - -
03/04:00pm 13.0 NW 9 11 1018.7 - 0.0 - - - - - - -
03/03:30pm 13.0 NW 10 12 1018.6 - 0.0 - - - - - - -
03/03:00pm 12.8 WNW 10 12 1018.8 R 0.0 Fine Mostly clear 25 <0.5 0.3 3 NW
03/02:30pm 12.9 WNW 10 12 1018.8 - 0.0 - - - - - - -
03/02:00pm 12.8 WNW 11 13 1018.9 - 0.0 - - - - - - -
03/01:30pm 12.9 WNW 12 14 1019.0 - 0.0 - - - - - - -
03/01:00pm 13.4 WNW 11 12 1019.5 - 0.0 - - - - - - -
03/12:30pm 12.5 WNW 11 12 1019.8 - 0.0 - - - - - - -
03/12:00pm 11.7 W 12 13 1020.4 - 0.0 - - - - - - -
03/11:30am 11.2 W 12 14 1020.8 - 0.0 - - - - - - -
03/11:00am 11.0 W 7 10 1021.1 - 0.0 - - - - - - -
03/10:30am 10.5 S 8 9 1021.5 - 0.0 - - - - - - -
03/10:00am 9.9 S 8 9 1021.6 - 0.0 - - - - - - -
03/09:30am 8.5 S 8 9 1021.6 - 0.0 - - - - - - -
03/09:00am 8.0 S 6 9 1021.5 F 0.2 Fine Clear 25 <0.1 0.1 3 NW
03/08:30am 7.1 S 6 8 1021.6 - 0.2 - - - - - - -
03/08:00am 6.4 S 6 7 1021.6 - 0.2 - - - - - - -
03/07:30am 5.7 SSE 5 6 1021.6 - 0.2 - - - - - - -
03/07:00am 6.1 S 7 10 1021.2 - 0.2 - - - - - - -
03/06:30am 6.3 S 9 10 1021.1 - 0.2 - - - - - - -
03/06:00am 5.5 SSW 7 8 1021.0 F 0.2 Fine Mostly clear 25 <0.1 0.1 3 NW
03/05:30am 4.8 S 6 7 1020.7 - 0.2 - - - - - - -
03/05:00am 5.5 S 6 7 1020.6 - 0.2 - - - - - - -
03/04:30am 5.1 S 5 6 1020.5 - 0.2 - - - - - - -
03/04:00am 5.3 SE 7 9 1020.5 - 0.2 - - - - - - -
03/03:30am 6.1 S 8 10 1020.4 - 0.2 - - - - - - -
03/03:00am 7.2 S 9 12 1020.4 - 0.2 - - - - - - -
03/02:30am 6.7 SSW 10 13 1020.5 - 0.2 - - - - - - -
03/02:00am 7.0 S 13 16 1020.6 - 0.2 - - - - - - -
03/01:30am 7.3 S 14 16 1020.7 - 0.2 - - - - - - -
03/01:00am 7.0 SSE 13 17 1020.6 - 0.2 - - - - - - -
03/12:30am 7.0 SSE 14 18 1020.5 - 0.2 - - - - - - -
03/12:00am 7.3 SSE 10 15 1020.6 - 0.2 - - - - - - -
 
Date/Time
EST
Temp

°C
Wind Pressure Rain
since 9am
mm
Weather Cloud Vis
km
Sea
Height
m
Swell
Dir
 
Speed
knots
Gust
knots
hPa Trend Height
m
Period
s
Dir
02/11:30pm 7.9 SSE 13 17 1020.5 - 0.2 - - - - - - -
02/11:00pm 8.1 SSE 12 16 1020.5 - 0.2 - - - - - - -
02/10:30pm 8.5 SSE 12 16 1020.5 - 0.2 - - - - - - -
02/10:00pm 8.6 SSE 10 15 1020.3 - 0.2 - - - - - - -
02/09:30pm 8.5 SSE 10 13 1020.3 - 0.2 - - - - - - -
02/09:00pm 8.5 SSE 9 11 1020.2 - 0.2 - - - - - - -
02/08:30pm 9.3 S 10 11 1020.0 - 0.2 - - - - - - -
02/08:00pm 8.7 SSE 9 11 1019.6 - 0.2 - - - - - - -
02/07:30pm 9.1 SSE 6 7 1019.2 - 0.2 - - - - - - -
02/07:00pm 10.4 S 4 5 1018.9 - 0.2 - - - - - - -
02/06:30pm 11.8 W 4 5 1018.7 - 0.2 - - - - - - -
02/06:00pm 11.9 NW 6 7 1018.3 - 0.2 - - - - - - -
02/05:30pm 12.3 NW 7 8 1018.1 - 0.2 - - - - - - -
02/05:00pm 12.7 NW 8 9 1017.9 - 0.2 - - - - - - -
02/04:30pm 13.3 NW 9 11 1017.7 - 0.2 - - - - - - -
02/04:00pm 13.5 NW 9 11 1017.5 - 0.2 - - - - - - -
02/03:30pm 13.7 NW 10 12 1017.4 - 0.2 - - - - - - -
02/03:00pm 13.7 NW 10 11 1017.3 R 0.2 Fine Partly cloudy 25 <0.5 0.3 3 NW
02/02:30pm 14.1 NW 10 12 1017.1 - 0.2 - - - - - - -
02/02:00pm 14.2 WNW 10 11 1016.9 - 0.2 - - - - - - -
02/01:30pm 14.1 WNW 9 14 1017.0 - 0.2 - - - - - - -
02/01:00pm 13.3 S 8 10 1017.0 - 0.2 - - - - - - -
02/12:30pm 12.9 S 10 13 1017.0 - 0.2 - - - - - - -
02/12:00pm 12.4 S 11 15 1017.2 - 0.2 - - - - - - -
02/11:30am 12.1 S 11 15 1017.3 - 0.0 - - - - - - -
02/11:00am 11.9 S 15 18 1017.3 - 0.0 - - - - - - -
02/10:30am 11.5 SSE 11 15 1017.3 - 0.0 - - - - - - -
02/10:00am 10.6 SSE 11 17 1017.1 - 0.0 - - - - - - -
02/09:30am 10.0 S 7 10 1017.0 - 0.0 - - - - - - -
02/09:00am 9.0 SSE 9 13 1016.9 R 4.6 Fine Mostly clear 25 <0.1 0.3 6 -
02/08:30am 8.8 S 12 14 1016.5 - 4.6 - - - - - - -
02/08:00am 8.2 S 10 14 1016.1 - 4.6 - - - - - - -
02/07:30am 7.9 S 10 13 1015.7 - 4.6 - - - - - - -
02/07:00am 7.9 S 13 16 1015.1 - 4.6 - - - - - - -
02/06:30am 7.8 SSW 10 12 1014.4 - 4.6 - - - - - - -
02/06:00am 7.7 S 10 13 1014.2 R 4.6 Fine Mostly clear 25 <0.5 0.5 3 -
02/05:30am 7.9 SSW 8 10 1013.9 - 4.6 - - - - - - -
02/05:00am 8.0 SSW 8 10 1013.3 - 4.6 - - - - - - -
02/04:30am 8.4 S 9 13 1012.8 - 4.6 - - - - - - -
02/04:00am 8.1 SE 7 11 1012.5 - 4.6 - - - - - - -
02/03:30am 8.5 SSE 7 17 1012.1 - 4.6 - - - - - - -
02/03:00am 8.9 SSE 19 24 1011.2 - 4.6 - - - - - - -
02/02:30am 9.1 SSE 17 23 1011.0 - 4.6 - - - - - - -
02/02:00am 9.2 SSE 19 25 1010.6 - 4.6 - - - - - - -
02/01:30am 9.5 S 20 27 1010.1 - 4.6 - - - - - - -
02/01:00am 9.5 SSE 18 24 1010.0 - 4.6 - - - - - - -
02/12:30am 9.6 S 17 25 1009.7 - 4.6 - - - - - - -
02/12:00am 9.5 S 20 25 1009.5 - 4.6 - - - - - - -
 
Date/Time
EST
Temp

°C
Wind Pressure Rain
since 9am
mm
Weather Cloud Vis
km
Sea
Height
m
Swell
Dir
 
Speed
knots
Gust
knots
hPa Trend Height
m
Period
s
Dir
01/11:30pm 9.3 SSE 18 28 1009.3 - 4.6 - - - - - - -
01/11:29pm 9.2 SSE 18 28 1009.3 - 4.6 - - - - - - -
01/11:00pm 9.6 SSE 19 25 1008.8 - 4.6 - - - - - - -
01/10:30pm 9.9 S 19 25 1008.3 - 4.6 - - - - - - -
01/10:00pm 10.0 S 19 23 1008.1 - 4.6 - - - - - - -
01/09:30pm 9.9 S 19 24 1007.7 - 4.6 - - - - - - -
01/09:00pm 9.9 SSE 16 21 1007.5 - 4.6 - - - - - - -
01/08:52pm 9.8 SSE 16 26 1007.4 - 4.6 - - - - - - -
01/08:30pm 11.4 S 11 23 1007.0 - 4.6 - - - - - - -
01/08:00pm 11.6 S 9 11 1006.5 - 4.6 - - - - - - -
01/07:30pm 12.3 WSW 10 13 1005.9 - 4.6 - - - - - - -
01/07:00pm 12.5 WSW 10 11 1005.4 - 4.6 - - - - - - -
01/06:30pm 12.7 W 12 13 1005.0 - 4.6 - - - - - - -
01/06:00pm 12.6 WNW 12 14 1004.7 - 4.6 - - - - - - -
01/05:30pm 12.6 WNW 10 13 1004.2 - 4.6 - - - - - - -
01/05:00pm 12.6 WNW 12 14 1004.0 - 4.6 - - - - - - -
01/04:30pm 12.6 WNW 14 17 1003.7 - 4.6 - - - - - - -
01/04:00pm 12.6 NW 16 19 1003.7 - 4.6 - - - - - - -
01/03:30pm 12.6 NW 16 19 1003.7 - 4.6 - - - - - - -
01/03:00pm 12.5 NW 16 19 1003.3 R 4.6 Fine Cloudy 25 2 1.5 3 NW
01/02:30pm 12.5 NW 18 21 1003.4 - 4.6 - - - - - - -
01/02:00pm 12.4 NW 20 25 1003.4 - 4.4 - - - - - - -
01/01:30pm 12.4 NW 20 23 1003.6 - 3.8 - - - - - - -
01/01:00pm 12.5 NNW 23 29 1003.7 - 3.4 - - - - - - -
01/12:30pm 13.0 N 19 23 1003.8 - 2.6 - - - - - - -
01/12:00pm 13.0 N 20 27 1004.3 - 2.4 - - - - - - -
01/11:57am 13.0 N 19 27 1004.4 - 2.4 - - - - - - -
01/11:30am 13.0 N 14 16 1004.9 - 2.0 - - - - - - -
01/11:00am 13.0 N 11 14 1005.6 - 1.4 - - - - - - -
01/10:30am 13.2 NNW 13 15 1005.8 - 1.2 - - - - - - -
01/10:00am 13.4 NNW 12 14 1006.1 - 0.6 - - - - - - -
01/09:30am 13.7 N 13 16 1006.1 - 0.2 - - - - - - -
01/09:00am 14.1 N 15 17 1006.0 F 0.2 Fine Cloudy 20 1 0.5 3 -
01/08:30am 14.0 N 12 14 1006.2 - 0.2 - - - - - - -
01/08:00am 13.9 N 8 8 1006.3 - 0.2 - - - - - - -
01/07:30am 14.2 N 9 11 1006.4 - 0.2 - - - - - - -
01/07:00am 14.3 NNW 7 19 1006.3 - 0.2 - - - - - - -
01/06:30am 13.8 ENE 15 18 1006.1 - 0.2 - - - - - - -
01/06:00am 13.5 ENE 11 12 1006.1 F 0.2 Fine Cloudy 15 <0.5 0.3 3 NE
01/05:30am 13.2 E 10 11 1007.3 - 0.0 - - - - - - -
01/05:00am 13.1 SE 5 7 1007.3 - 0.0 - - - - - - -
01/04:30am 13.4 SE 3 5 1007.5 - 0.0 - - - - - - -
01/04:00am 13.3 ESE 6 11 1007.2 - 0.0 - - - - - - -
01/03:30am 12.9 E 9 13 1007.6 - 0.0 - - - - - - -
01/03:00am 13.3 E 14 17 1007.4 - 0.0 - - - - - - -
01/02:30am 13.6 NE 13 16 1008.5 - 0.0 - - - - - - -
01/02:00am 12.8 ESE 7 10 1009.0 - 0.0 - - - - - - -
01/01:30am 13.0 E 9 14 1009.3 - 0.0 - - - - - - -
01/01:00am 12.2 SSW 6 9 1010.1 - 0.0 - - - - - - -
01/12:30am 11.8 SSE 7 10 1010.4 - 0.0 - - - - - - -
01/12:00am 12.2 E 6 10 1010.5 - 0.0 - - - - - - -
 
Date/Time
EST
Temp

°C
Wind Pressure Rain
since 9am
mm
Weather Cloud Vis
km
Sea
Height
m
Swell
Dir
 
Speed
knots
Gust
knots
hPa Trend Height
m
Period
s
Dir
31/11:30pm 12.7 ENE 11 14 1010.9 - 0.0 - - - - - - -
31/11:00pm 12.8 ENE 13 15 1011.1 - 0.0 - - - - - - -
31/10:30pm 12.7 ENE 13 16 1011.4 - 0.0 - - - - - - -
31/10:00pm 11.9 E 8 10 1011.8 - 0.0 - - - - - - -
31/09:30pm 11.9 E 8 10 1012.2 - 0.0 - - - - - - -
31/09:00pm 11.9 E 7 9 1012.6 - 0.0 - - - - - - -
31/08:30pm 11.9 E 6 8 1012.9 - 0.0 - - - - - - -
31/08:00pm 12.2 E 8 9 1012.9 - 0.0 - - - - - - -
31/07:30pm 12.2 E 5 7 1013.2 - 0.0 - - - - - - -
31/07:00pm 12.7 E 9 10 1013.2 - 0.0 - - - - - - -
31/06:30pm 13.0 E 10 12 1013.2 - 0.0 - - - - - - -
31/06:00pm 13.2 ENE 12 13 1013.3 - 0.0 - - - - - - -
31/05:30pm 13.3 ENE 12 14 1013.4 - 0.0 - - - - - - -

Other Formats:

Comma delimited format used in spreadsheet applications
http://www.bom.gov.au/fwo/IDV60701/IDV60701.95964.axf

JavaScript Object Notation format (JSON) in row-major order
http://www.bom.gov.au/fwo/IDV60701/IDV60701.95964.json